Regional Weather Roundup
Issued by NWS Little Rock, AR

Home | Current Version | Previous Version | Text Only | Print | Product List | Glossary On
Versions: 1 2 3 4 5 6 7 8 9 10 11 12 13 14 15 16 17 18 19 20 21 22 23 24 25 26 27 28 29 30 31 32
000
ASUS44 KLZK 211505
RWRLZK

WEATHER ROUNDUP FOR ARKANSAS
NATIONAL WEATHER SERVICE LITTLE ROCK AR
900 AM CST TUE FEB 21 2017

NOTE: "FAIR" INDICATES FEW OR NO CLOUDS BELOW 12,000 FEET WITH NO
SIGNIFICANT WEATHER AND/OR OBSTRUCTIONS TO VISIBILITY.

ARZ001-003-010-029-211600-
NORTHWEST ARKANSAS

CITY           SKY/WX    TMP DP  RH WIND       PRES   REMARKS
FAYETTEVILLE   CLOUDY    55  55 100 N8        29.92S FOG
FORT SMITH     CLOUDY    58  55  90 W7        29.90S
HARRISON       CLOUDY    56  55  97 NW6       29.90S
BENTONVILLE    CLOUDY    55  54  94 N7        29.94S
ROGERS         CLOUDY    55  53  93 N7        29.93F
SILOAM SPGS    CLOUDY    55  52  88 N9        29.94R
HIGHFILL       CLOUDY    57  55  93 N9        29.93R
SPRINGDALE     CLOUDY    55  55 100 NW9       29.94S
$$

ARZ004-005-016-211600-
NORTH CENTRAL ARKANSAS

CITY           SKY/WX    TMP DP  RH WIND       PRES   REMARKS
BATESVILLE     CLOUDY    57  55  94 E7        29.86S
FLIPPIN        CLOUDY    57  52  82 N7        29.86R
MTN HOME       LGT RAIN  56  56 100 N3        29.87S FOG
$$

ARZ040-041-211600-
WEST CENTRAL ARKANSAS

CITY           SKY/WX    TMP DP  RH WIND       PRES   REMARKS
MENA           CLOUDY    59  59 100 W8        29.89S
MOUNT IDA      CLOUDY    58  57  97 VRB3      29.85R
$$

ARZ009-017-025-026-028-211600-
NORTHEAST ARKANSAS

CITY           SKY/WX    TMP DP  RH WIND       PRES   REMARKS
CORNING        CLOUDY    59  59 100 E12       29.88R
JONESBORO      CLOUDY    58  55  90 NE7       29.85S
NEWPORT        LGT RAIN  58  57  97 MISG        N/A  FOG
WALNUT RIDGE   CLOUDY    57  54  88 NE7       29.86F
BLYTHEVILLE    LGT RAIN  59  57  93 S6        29.88R
NW BLYTHEVILLE CLOUDY    59  55  88 SE6       29.87R
$$

ARZ022-023-033-042-044-211600-
CENTRAL ARKANSAS

CITY           SKY/WX    TMP DP  RH WIND       PRES   REMARKS
LITTLE ROCK    RAIN      59  59 100 SW6       29.86S FOG
N LITTLE ROCK    N/A     58  57  96 W3        29.86S
JACKSONVILLE   LGT RAIN  60  60 100 SW6       29.85R
SEARCY         CLOUDY    60  60 100 SW5       29.87R
HOT SPRINGS    CLOUDY    58  58 100 W3        29.86S
RUSSELLVILLE   CLOUDY    59  58  96 NW8       29.85S
CLINTON        CLOUDY    61  57  88 CALM      29.86R
$$

ARZ036-211600-
EAST ARKANSAS

CITY           SKY/WX    TMP DP  RH WIND       PRES   REMARKS
WEST MEMPHIS   CLOUDY    60  60 100 S10       29.87R
$$

ARZ050-053-066-070-073-211600-
SOUTHWEST ARKANSAS

CITY           SKY/WX    TMP DP  RH WIND       PRES   REMARKS
ARKADELPHIA      N/A    N/A N/A N/A MISG        N/A
CAMDEN         LGT RAIN  57  55  94 W6        29.89S
TEXARKANA      LGT RAIN  56  56 100 W10       29.92S FOG
EL DORADO      CLOUDY    59  57  93 SW9       29.91S
DE QUEEN       LGT RAIN  57  57 100 W6        29.90R FOG
$$

ARZ056-057-069-211600-
SOUTHEAST ARKANSAS

CITY           SKY/WX    TMP DP  RH WIND       PRES   REMARKS
PINE BLUFF     CLOUDY    59  58  96 SW6       29.87R
STUTTGART      CLOUDY    61  54  77 SW8       29.87F
MONTICELLO     CLOUDY    59  57  93 SW7       29.89S

$$






USA.gov is the U.S. government's official web portal to all federal, state and local government web resources and services.